| time (UTC) | temp F | wind direction | speed knots | gust knots | rain 1hr in | rain 24hr in | rain mn in | humidity % | barometer mb |
| 20260507223818 | 50 | 112 | 0.9 | 1.7 | 0.00 | 0.00 | 0.00 | 82 | 1015.9 |
| 20260507222703 | 50 | 110 | 1.7 | 1.7 | 0.00 | 0.00 | 0.00 | 81 | 1016.0 |
| 20260507221803 | 51 | 115 | 0.9 | 0.9 | 0.00 | 0.00 | 0.00 | 81 | 1015.9 |
| 20260507221118 | 51 | 114 | 1.7 | 2.6 | 0.00 | 0.00 | 0.00 | 81 | 1015.9 |
| 20260507220003 | 51 | 109 | 0.9 | 1.7 | 0.00 | 0.00 | 0.00 | 81 | 1016.0 |
| 20260507215403 | 51 | 116 | 0.9 | 1.7 | 0.00 | 0.00 | 0.00 | 81 | 1016.0 |
| 20260507214503 | 51 | 105 | 0.9 | 1.7 | 0.00 | 0.00 | 0.00 | 80 | 1016.0 |
| 20260507213603 | 51 | 109 | 1.7 | 1.7 | 0.00 | 0.00 | 0.00 | 80 | 1015.9 |
| 20260507212703 | 51 | 110 | 0.9 | 1.7 | 0.00 | 0.00 | 0.00 | 80 | 1016.0 |
| 20260507211803 | 51 | 115 | 0.9 | 0.9 | 0.00 | 0.00 | 0.00 | 80 | 1015.8 |
| 20260507210903 | 51 | 114 | 0.9 | 1.7 | 0.00 | 0.00 | 0.00 | 80 | 1015.8 |
| 20260507210217 | 51 | 111 | 0.9 | 1.7 | 0.00 | 0.00 | 0.00 | 80 | 1015.7 |
| 20260507205403 | 51 | 110 | 0.9 | 1.7 | 0.00 | 0.00 | 0.00 | 80 | 1015.7 |
| 20260507204503 | 51 | 113 | 1.7 | 2.6 | 0.00 | 0.00 | 0.00 | 80 | 1015.7 |
| 20260507203603 | 51 | 118 | 1.7 | 2.6 | 0.00 | 0.00 | 0.00 | 79 | 1015.7 |
| 20260507202703 | 51 | 112 | 1.7 | 2.6 | 0.00 | 0.00 | 0.00 | 79 | 1015.7 |
| 20260507201803 | 52 | 112 | 1.7 | 1.7 | 0.00 | 0.00 | 0.00 | 79 | 1015.6 |
| 20260507200903 | 52 | 109 | 0.9 | 1.7 | 0.00 | 0.00 | 0.00 | 79 | 1015.5 |
| 20260507200216 | 52 | 105 | 0.9 | 1.7 | 0.00 | 0.00 | 0.00 | 79 | 1015.5 |
| 20260507195618 | 52 | 105 | 0.9 | 1.7 | 0.00 | 0.00 | 0.00 | 78 | 1015.5 |
| 20260507194503 | 52 | 114 | 1.7 | 2.6 | 0.00 | 0.00 | 0.00 | 78 | 1015.3 |
| 20260507193603 | 52 | 128 | 1.7 | 2.6 | 0.00 | 0.00 | 0.00 | 77 | 1015.3 |
| 20260507192703 | 52 | 122 | 1.7 | 2.6 | 0.00 | 0.00 | 0.00 | 76 | 1015.3 |
| 20260507191803 | 53 | 131 | 1.7 | 2.6 | 0.00 | 0.00 | 0.00 | 76 | 1015.3 |
| 20260507190903 | 53 | 137 | 1.7 | 2.6 | 0.00 | 0.00 | 0.00 | 76 | 1015.2 |
| 20260507190005 | 53 | 137 | 2.6 | 3.5 | 0.00 | 0.00 | 0.00 | 75 | 1015.2 |
| 20260507185403 | 53 | 143 | 2.6 | 3.5 | 0.00 | 0.00 | 0.00 | 75 | 1015.2 |
| 20260507184504 | 54 | 169 | 1.7 | 3.5 | 0.00 | 0.00 | 0.00 | 75 | 1015.2 |
| 20260507183603 | 54 | 138 | 2.6 | 3.5 | 0.00 | 0.00 | 0.00 | 75 | 1015.3 |
| 20260507182918 | 54 | 156 | 2.6 | 3.5 | 0.00 | 0.00 | 0.00 | 74 | 1015.3 |
| 20260507181803 | 55 | 167 | 1.7 | 2.6 | 0.00 | 0.00 | 0.00 | 73 | 1015.2 |
| 20260507181118 | 55 | 140 | 2.6 | 4.3 | 0.00 | 0.00 | 0.00 | 72 | 1015.1 |
| 20260507180003 | 55 | 157 | 3.5 | 5.2 | 0.00 | 0.00 | 0.00 | 70 | 1015.1 |
| 20260507175403 | 55 | 144 | 4.3 | 7.0 | 0.00 | 0.00 | 0.00 | 69 | 1015.1 |
| 20260507174503 | 55 | 137 | 4.3 | 7.0 | 0.00 | 0.00 | 0.00 | 68 | 1015.0 |
| 20260507173603 | 56 | 148 | 4.3 | 7.0 | 0.00 | 0.00 | 0.00 | 68 | 1015.1 |
| 20260507172703 | 56 | 130 | 3.5 | 5.2 | 0.00 | 0.00 | 0.00 | 68 | 1015.0 |
| 20260507171803 | 56 | 141 | 3.5 | 5.2 | 0.00 | 0.00 | 0.00 | 68 | 1015.1 |
| 20260507170903 | 55 | 135 | 2.6 | 5.2 | 0.00 | 0.00 | 0.00 | 69 | 1015.1 |
| 20260507170003 | 55 | 116 | 3.5 | 6.1 | 0.00 | 0.00 | 0.00 | 69 | 1015.1 |
| 20260507165403 | 55 | 111 | 3.5 | 5.2 | 0.00 | 0.00 | 0.00 | 68 | 1015.1 |
| 20260507164719 | 55 | 114 | 4.3 | 7.0 | 0.00 | 0.00 | 0.00 | 68 | 1015.2 |
| 20260507163603 | 55 | 121 | 6.1 | 7.8 | 0.00 | 0.00 | 0.00 | 67 | 1015.2 |
| 20260507162917 | 55 | 127 | 5.2 | 8.7 | 0.00 | 0.00 | 0.00 | 71 | 1015.1 |
| 20260507162018 | 54 | 134 | 4.3 | 6.1 | 0.00 | 0.00 | 0.00 | 71 | 1015.2 |
| 20260507161118 | 54 | 124 | 6.1 | 8.7 | 0.00 | 0.00 | 0.00 | 72 | 1015.2 |
| 20260507160003 | 54 | 132 | 5.2 | 7.0 | 0.00 | 0.00 | 0.00 | 71 | 1015.1 |
| 20260507155403 | 54 | 147 | 5.2 | 7.8 | 0.00 | 0.00 | 0.00 | 70 | 1015.2 |
| 20260507154503 | 55 | 142 | 5.2 | 7.8 | 0.00 | 0.00 | 0.00 | 70 | 1015.2 |
| 20260507153603 | 56 | 134 | 4.3 | 6.1 | 0.00 | 0.00 | 0.00 | 70 | 1015.1 |
| 20260507152916 | 56 | 130 | 3.5 | 5.2 | 0.00 | 0.00 | 0.00 | 70 | 1015.1 |
| 20260507151803 | 56 | 121 | 3.5 | 5.2 | 0.00 | 0.00 | 0.00 | 70 | 1015.2 |
| 20260507150903 | 55 | 137 | 1.7 | 2.6 | 0.00 | 0.00 | 0.00 | 69 | 1015.1 |
| 20260507150004 | 56 | 137 | 3.5 | 5.2 | 0.00 | 0.00 | 0.00 | 68 | 1015.2 |
| 20260507145403 | 56 | 143 | 3.5 | 6.1 | 0.00 | 0.00 | 0.00 | 68 | 1015.2 |
| 20260507144503 | 56 | 136 | 3.5 | 4.3 | 0.00 | 0.00 | 0.00 | 68 | 1015.2 |
| 20260507143603 | 55 | 140 | 3.5 | 5.2 | 0.00 | 0.00 | 0.00 | 68 | 1015.3 |
| 20260507142703 | 55 | 142 | 2.6 | 5.2 | 0.00 | 0.00 | 0.00 | 69 | 1015.3 |
| 20260507141803 | 54 | 248 | 1.7 | 2.6 | 0.00 | 0.00 | 0.00 | 73 | 1015.5 |
| 20260507141117 | 53 | 255 | 1.7 | 2.6 | 0.00 | 0.00 | 0.00 | 73 | 1015.5 |
| 20260507140003 | 53 | 244 | 2.6 | 4.3 | 0.00 | 0.00 | 0.00 | 72 | 1015.5 |
| 20260507135403 | 54 | 237 | 3.5 | 6.1 | 0.00 | 0.00 | 0.00 | 72 | 1015.6 |
| 20260507134503 | 55 | 186 | 3.5 | 7.0 | 0.00 | 0.00 | 0.00 | 69 | 1015.7 |
| 20260507133603 | 55 | 177 | 4.3 | 7.8 | 0.00 | 0.00 | 0.00 | 67 | 1015.6 |
| 20260507132703 | 55 | 120 | 2.6 | 6.1 | 0.00 | 0.00 | 0.00 | 68 | 1015.6 |
| 20260507132017 | 55 | 108 | 5.2 | 8.7 | 0.00 | 0.00 | 0.00 | 67 | 1015.6 |
| 20260507130903 | 56 | 123 | 2.6 | 5.2 | 0.00 | 0.00 | 0.00 | 66 | 1015.6 |
| 20260507130218 | 55 | 128 | 4.3 | 6.1 | 0.00 | 0.00 | 0.00 | 66 | 1015.6 |
| 20260507125403 | 56 | 153 | 3.5 | 6.1 | 0.00 | 0.00 | 0.00 | 66 | 1015.6 |
| 20260507124503 | 56 | 123 | 4.3 | 7.0 | 0.00 | 0.00 | 0.00 | 65 | 1015.6 |
| 20260507123603 | 56 | 144 | 2.6 | 4.3 | 0.00 | 0.00 | 0.00 | 65 | 1015.6 |
| 20260507122705 | 56 | 138 | 4.3 | 7.0 | 0.00 | 0.00 | 0.00 | 66 | 1015.6 |
| 20260507122017 | 56 | 142 | 5.2 | 7.0 | 0.00 | 0.00 | 0.00 | 66 | 1015.6 |
| 20260507120903 | 55 | 114 | 5.2 | 9.6 | 0.00 | 0.00 | 0.00 | 66 | 1015.7 |
| 20260507120004 | 55 | 133 | 3.5 | 7.0 | 0.00 | 0.00 | 0.00 | 67 | 1015.8 |
| 20260507115403 | 55 | 132 | 4.3 | 7.8 | 0.00 | 0.00 | 0.00 | 67 | 1015.7 |
| 20260507114504 | 55 | 111 | 6.1 | 8.7 | 0.00 | 0.00 | 0.00 | 67 | 1015.8 |
| 20260507113603 | 56 | 112 | 6.1 | 9.6 | 0.00 | 0.00 | 0.00 | 66 | 1015.9 |
| 20260507112703 | 56 | 109 | 6.1 | 11.3 | 0.00 | 0.00 | 0.00 | 69 | 1015.8 |
| 20260507111803 | 56 | 181 | 5.2 | 8.7 | 0.00 | 0.00 | 0.00 | 66 | 1015.8 |
| 20260507111118 | 56 | 181 | 5.2 | 8.7 | 0.00 | 0.00 | 0.00 | 65 | 1015.9 |
| 20260507110003 | 55 | 154 | 6.1 | 7.8 | 0.00 | 0.00 | 0.00 | 65 | 1016.0 |
| 20260507105403 | 55 | 132 | 6.1 | 7.8 | 0.00 | 0.00 | 0.00 | 64 | 1016.0 |
| 20260507104503 | 54 | 116 | 7.0 | 9.6 | 0.00 | 0.00 | 0.00 | 68 | 1016.1 |
| 20260507103817 | 54 | 126 | 6.1 | 9.6 | 0.00 | 0.00 | 0.00 | 69 | 1016.1 |
| 20260507102703 | 54 | 134 | 5.2 | 9.6 | 0.00 | 0.00 | 0.00 | 70 | 1016.2 |
| 20260507101803 | 53 | 111 | 4.3 | 6.1 | 0.00 | 0.00 | 0.00 | 73 | 1016.1 |
| 20260507100903 | 53 | 108 | 4.3 | 6.1 | 0.00 | 0.00 | 0.00 | 75 | 1016.2 |
| 20260507100004 | 52 | 110 | 5.2 | 8.7 | 0.00 | 0.00 | 0.00 | 78 | 1016.1 |
| 20260507095403 | 51 | 119 | 5.2 | 8.7 | 0.00 | 0.00 | 0.00 | 78 | 1016.2 |
| 20260507094503 | 50 | 111 | 6.1 | 8.7 | 0.00 | 0.00 | 0.00 | 80 | 1016.1 |
| 20260507093817 | 49 | 114 | 6.1 | 8.7 | 0.00 | 0.00 | 0.00 | 80 | 1016.2 |
| 20260507092918 | 49 | 113 | 6.1 | 9.6 | 0.00 | 0.00 | 0.00 | 81 | 1016.1 |
| 20260507091803 | 48 | 117 | 4.3 | 7.0 | 0.00 | 0.00 | 0.00 | 82 | 1016.1 |
| 20260507090903 | 48 | 118 | 3.5 | 6.1 | 0.00 | 0.00 | 0.00 | 83 | 1016.1 |
| 20260507090004 | 47 | 114 | 4.3 | 7.0 | 0.00 | 0.00 | 0.00 | 84 | 1016.2 |
| 20260507085403 | 46 | 100 | 5.2 | 7.0 | 0.00 | 0.00 | 0.00 | 84 | 1016.2 |
| 20260507084503 | 46 | 96 | 5.2 | 7.0 | 0.00 | 0.00 | 0.00 | 85 | 1016.2 |
| 20260507083816 | 46 | 98 | 4.3 | 6.1 | 0.00 | 0.00 | 0.00 | 85 | 1016.3 |
| 20260507082703 | 45 | 95 | 3.5 | 4.3 | 0.00 | 0.00 | 0.00 | 86 | 1016.4 |
| 20260507081803 | 45 | 109 | 3.5 | 5.2 | 0.00 | 0.00 | 0.00 | 85 | 1016.4 |
| 20260507080903 | 45 | 120 | 3.5 | 5.2 | 0.00 | 0.00 | 0.00 | 86 | 1016.3 |
| 20260507080004 | 45 | 109 | 4.3 | 6.1 | 0.00 | 0.00 | 0.00 | 86 | 1016.1 |
| 20260507075403 | 44 | 108 | 4.3 | 6.1 | 0.00 | 0.00 | 0.00 | 86 | 1016.1 |
| 20260507074717 | 44 | 112 | 4.3 | 5.2 | 0.00 | 0.00 | 0.00 | 86 | 1016.2 |
| 20260507073603 | 44 | 105 | 4.3 | 5.2 | 0.00 | 0.00 | 0.00 | 87 | 1016.0 |
| 20260507072703 | 44 | 105 | 3.5 | 5.2 | 0.00 | 0.00 | 0.00 | 87 | 1016.1 |
| 20260507071803 | 44 | 109 | 3.5 | 5.2 | 0.00 | 0.00 | 0.00 | 87 | 1016.1 |
| 20260507070903 | 44 | 109 | 3.5 | 6.1 | 0.00 | 0.00 | 0.00 | 88 | 1016.0 |
| 20260507070005 | 43 | 110 | 4.3 | 6.1 | 0.00 | 0.00 | 0.00 | 88 | 1015.9 |
| 20260507065403 | 44 | 111 | 3.5 | 3.5 | 0.00 | 0.00 | 0.00 | 88 | 1015.8 |
| 20260507064503 | 43 | 111 | 4.3 | 6.1 | 0.00 | 0.00 | 0.00 | 88 | 1015.8 |
| 20260507063603 | 43 | 111 | 5.2 | 6.1 | 0.00 | 0.00 | 0.00 | 88 | 1015.8 |
| 20260507062703 | 43 | 105 | 4.3 | 6.1 | 0.00 | 0.00 | 0.00 | 88 | 1015.7 |
| 20260507061803 | 43 | 107 | 5.2 | 6.1 | 0.00 | 0.00 | 0.00 | 88 | 1015.7 |
| 20260507060903 | 43 | 104 | 4.3 | 6.1 | 0.00 | 0.00 | 0.00 | 88 | 1015.7 |
| 20260507060003 | 43 | 109 | 4.3 | 6.1 | 0.00 | 0.00 | 0.00 | 88 | 1015.7 |
| 20260507055617 | 43 | 105 | 4.3 | 6.1 | 0.00 | 0.00 | 0.00 | 88 | 1015.7 |
| 20260507054503 | 43 | 104 | 4.3 | 6.1 | 0.00 | 0.00 | 0.00 | 88 | 1015.6 |
| 20260507053817 | 43 | 103 | 4.3 | 5.2 | 0.00 | 0.00 | 0.00 | 88 | 1015.6 |
| 20260507052703 | 43 | 96 | 3.5 | 6.1 | 0.00 | 0.00 | 0.00 | 88 | 1015.5 |
| 20260507051803 | 43 | 104 | 3.5 | 5.2 | 0.00 | 0.00 | 0.00 | 88 | 1015.6 |
| 20260507050903 | 43 | 106 | 3.5 | 3.5 | 0.00 | 0.00 | 0.00 | 88 | 1015.5 |
| 20260507050003 | 43 | 115 | 2.6 | 3.5 | 0.00 | 0.00 | 0.00 | 88 | 1015.6 |
| 20260507045403 | 43 | 113 | 2.6 | 2.6 | 0.00 | 0.00 | 0.00 | 88 | 1015.5 |
| 20260507044503 | 43 | 112 | 2.6 | 3.5 | 0.00 | 0.00 | 0.00 | 88 | 1015.5 |
| 20260507043817 | 43 | 110 | 2.6 | 3.5 | 0.00 | 0.00 | 0.00 | 88 | 1015.4 |
| 20260507042703 | 43 | 108 | 2.6 | 5.2 | 0.00 | 0.00 | 0.00 | 87 | 1015.4 |
| 20260507041803 | 43 | 106 | 3.5 | 5.2 | 0.00 | 0.00 | 0.00 | 87 | 1015.3 |
| 20260507040903 | 43 | 106 | 2.6 | 3.5 | 0.00 | 0.00 | 0.00 | 87 | 1015.5 |
| 20260507040003 | 43 | 102 | 2.6 | 3.5 | 0.00 | 0.00 | 0.00 | 87 | 1015.4 |
| 20260507035403 | 43 | 105 | 2.6 | 3.5 | 0.00 | 0.00 | 0.00 | 87 | 1015.4 |
| 20260507034503 | 43 | 108 | 1.7 | 2.6 | 0.00 | 0.00 | 0.00 | 87 | 1015.5 |
| 20260507033603 | 43 | 112 | 1.7 | 2.6 | 0.00 | 0.00 | 0.00 | 86 | 1015.5 |
| 20260507032703 | 43 | 82 | 0.0 | 0.9 | 0.00 | 0.00 | 0.00 | 86 | 1015.5 |
| 20260507031803 | 43 | 96 | 0.9 | 2.6 | 0.00 | 0.00 | 0.00 | 86 | 1015.5 |
| 20260507030903 | 44 | 96 | 1.7 | 2.6 | 0.00 | 0.00 | 0.00 | 86 | 1015.6 |
| 20260507030003 | 44 | 90 | 0.9 | 2.6 | 0.00 | 0.00 | 0.00 | 86 | 1015.5 |
| 20260507025403 | 44 | 88 | 0.9 | 1.7 | 0.00 | 0.00 | 0.00 | 86 | 1015.6 |
| 20260507024503 | 44 | 92 | 1.7 | 2.6 | 0.00 | 0.00 | 0.00 | 86 | 1015.6 |
| 20260507023603 | 44 | 108 | 2.6 | 3.5 | 0.00 | 0.00 | 0.00 | 86 | 1015.5 |
| 20260507022703 | 44 | 104 | 2.6 | 4.3 | 0.00 | 0.00 | 0.00 | 86 | 1015.6 |
| 20260507021803 | 44 | 106 | 2.6 | 4.3 | 0.00 | 0.00 | 0.00 | 86 | 1015.5 |
| 20260507021116 | 44 | 106 | 2.6 | 4.3 | 0.00 | 0.00 | 0.00 | 86 | 1015.6 |
| 20260507020003 | 44 | 106 | 3.5 | 4.3 | 0.00 | 0.00 | 0.00 | 86 | 1015.5 |
| 20260507015403 | 44 | 108 | 2.6 | 4.3 | 0.00 | 0.00 | 0.00 | 86 | 1015.5 |
| 20260507014504 | 44 | 94 | 2.6 | 3.5 | 0.00 | 0.00 | 0.00 | 85 | 1015.5 |
| 20260507013603 | 44 | 105 | 3.5 | 5.2 | 0.00 | 0.00 | 0.00 | 85 | 1015.5 |
| 20260507012704 | 44 | 110 | 2.6 | 4.3 | 0.00 | 0.00 | 0.00 | 85 | 1015.5 |
| 20260507011803 | 44 | 107 | 4.3 | 5.2 | 0.00 | 0.00 | 0.00 | 85 | 1015.6 |
| 20260507010904 | 45 | 103 | 4.3 | 5.2 | 0.00 | 0.00 | 0.00 | 84 | 1015.6 |
| 20260507010218 | 45 | 102 | 2.6 | 4.3 | 0.00 | 0.00 | 0.00 | 84 | 1015.6 |
| 20260507005403 | 45 | 103 | 3.5 | 4.3 | 0.00 | 0.00 | 0.00 | 84 | 1015.6 |
| 20260507004503 | 45 | 106 | 4.3 | 6.1 | 0.00 | 0.00 | 0.00 | 84 | 1015.5 |
| 20260507003603 | 45 | 107 | 4.3 | 7.0 | 0.00 | 0.00 | 0.00 | 84 | 1015.5 |
| 20260507002704 | 45 | 104 | 5.2 | 7.8 | 0.00 | 0.00 | 0.00 | 83 | 1015.5 |
| 20260507001804 | 46 | 96 | 5.2 | 7.8 | 0.00 | 0.00 | 0.00 | 83 | 1015.6 |
| 20260507000904 | 46 | 106 | 5.2 | 8.7 | 0.00 | 0.00 | 0.00 | 83 | 1015.8 |
| 20260507000004 | 46 | 107 | 4.3 | 7.0 | 0.00 | 0.00 | 0.00 | 82 | 1015.7 |
| 20260506235403 | 46 | 104 | 4.3 | 5.2 | 0.00 | 0.00 | 0.00 | 82 | 1015.7 |
| 20260506234503 | 46 | 102 | 4.3 | 5.2 | 0.00 | 0.00 | 0.00 | 82 | 1015.6 |
| 20260506233603 | 46 | 105 | 6.1 | 7.8 | 0.00 | 0.00 | 0.00 | 81 | 1015.6 |
| 20260506232703 | 46 | 100 | 6.1 | 8.7 | 0.00 | 0.00 | 0.00 | 80 | 1015.6 |
| 20260506231803 | 46 | 103 | 7.8 | 11.3 | 0.00 | 0.00 | 0.00 | 80 | 1015.6 |
| 20260506230903 | 46 | 106 | 7.0 | 9.6 | 0.00 | 0.00 | 0.00 | 79 | 1015.6 |
| 20260506230005 | 46 | 107 | 7.0 | 9.6 | 0.00 | 0.00 | 0.00 | 78 | 1015.6 |
| 20260506225403 | 47 | 104 | 5.2 | 7.8 | 0.00 | 0.00 | 0.00 | 78 | 1015.6 |
| 20260506224503 | 47 | 95 | 5.2 | 7.0 | 0.00 | 0.00 | 0.00 | 77 | 1015.6 |